Weather History for Las Vegas, NV

Change the Weather History Date:

Tuesday, November 26, 2013

  Actual Average Record
Temperature  
Mean Temperature 54 °F 52 °F  
Max Temperature 65 °F 61 °F 75 °F (1949)
Min Temperature 43 °F 42 °F 24 °F (1944)
Degree Days  
Heating Degree Days 11 13  
Month to date heating degree days 171 213  
Since 1 July heating degree days 218 252  
Cooling Degree Days 0 0  
Month to date cooling degree days 5 10  
Year to date cooling degree days 3766 3566  
Growing Degree Days 4 (Base 50)    
Moisture  
Dew Point 33 °F    
Average Humidity 48    
Maximum Humidity 71    
Minimum Humidity 24    
Precipitation  
Precipitation 0.00 in 0.02 in 0.32 in (2008)
Month to date precipitation 1.37 0.31  
Year to date precipitation 2.91 3.64  
Snow  
Snow 0.00 in 0.00 in 0.00 in (2013)
Month to date snowfall 0.0 0.0  
Since 1 July snowfall 0.0 0.0  
Since 1 September snowfall 0.0 0.0  
Snow Depth 0.00 in    
Sea Level Pressure  
Sea Level Pressure 30.23 in    
Wind  
Wind Speed 6 mph (SSW)    
Max Wind Speed 13 mph    
Max Gust Speed 14 mph    
Visibility 10 miles    
Events      
T = Trace of Precipitation, MM = Missing Value Source: NWS Daily Summary

Daily Weather History Graph

Daily Weather History Graph

Search for Another Location

Airport:

Trip Planner

Search our weather history database for the weather conditions in past years. The results will help you decide how hot, cold, wet, or windy it might be!

Date:

Astronomy

Nov. 26, 2013 Rise Set
Actual Time 6:28 AM PST 4:27 PM PST
Civil Twilight 6:00 AM PST 4:55 PM PST
Nautical Twilight 5:29 AM PST 5:26 PM PST
Astronomical Twilight 4:58 AM PST 5:57 PM PST
Moon No Moon Rise 12:25 PM PST (11/26)
Length of Visible Light 10h 54m
Length of Day
9h 58m
Last Quarter, 40% of the Moon is Illuminated
Nov 26
Last Quarter
Dec 2
New
Dec 9
First Quarter
Dec 17
Full
Dec 25
Last Quarter

Hourly Weather History & Observations

Time (PST) Temp. Windchill Dew Point Humidity Pressure Visibility Wind Dir Wind Speed Gust Speed Precip Events Conditions
12:56 AM 46.9 °F - 37.0 °F 68% 30.26 in 10.0 mi SSW 9.2 mph - N/A   Clear
1:56 AM 46.0 °F 42.5 °F 37.0 °F 71% 30.26 in 10.0 mi SW 6.9 mph - N/A   Clear
2:56 AM 45.0 °F 39.7 °F 36.0 °F 71% 30.26 in 10.0 mi South 10.4 mph - N/A   Clear
3:56 AM 45.0 °F 41.2 °F 36.0 °F 71% 30.27 in 10.0 mi SSW 6.9 mph - N/A   Partly Cloudy
4:56 AM 44.1 °F 39.5 °F 36.0 °F 73% 30.28 in 10.0 mi SSW 8.1 mph - N/A   Partly Cloudy
5:56 AM 44.1 °F 40.1 °F 35.1 °F 71% 30.28 in 10.0 mi SSW 6.9 mph - N/A   Clear
6:56 AM 46.0 °F 41.4 °F 35.1 °F 66% 30.30 in 10.0 mi SSW 9.2 mph - N/A   Clear
7:56 AM 50.0 °F - 36.0 °F 59% 30.31 in 10.0 mi South 6.9 mph - N/A   Partly Cloudy
8:56 AM 54.0 °F - 33.1 °F 45% 30.31 in 10.0 mi South 5.8 mph - N/A   Partly Cloudy
9:56 AM 57.0 °F - 28.9 °F 34% 30.30 in 10.0 mi SE 3.5 mph - N/A   Scattered Clouds
10:56 AM 59.0 °F - 27.0 °F 29% 30.29 in 10.0 mi Calm Calm - N/A   Scattered Clouds
11:56 AM 61.0 °F - 28.0 °F 29% 30.25 in 10.0 mi Calm Calm - N/A   Mostly Cloudy
12:56 PM 63.0 °F - 28.0 °F 27% 30.22 in 10.0 mi Calm Calm - N/A   Mostly Cloudy
1:56 PM 64.0 °F - 27.0 °F 25% 30.19 in 10.0 mi Calm Calm - N/A   Mostly Cloudy
2:56 PM 63.0 °F - 28.0 °F 27% 30.17 in 10.0 mi SE 3.5 mph - N/A   Mostly Cloudy
3:56 PM 62.1 °F - 28.9 °F 29% 30.16 in 10.0 mi South 4.6 mph - N/A   Mostly Cloudy
4:56 PM 60.1 °F - 30.9 °F 33% 30.16 in 10.0 mi South 6.9 mph - N/A   Mostly Cloudy
5:56 PM 57.9 °F - 33.1 °F 39% 30.17 in 10.0 mi SSW 9.2 mph - N/A   Scattered Clouds
6:56 PM 55.0 °F - 35.1 °F 47% 30.17 in 10.0 mi SW 3.5 mph - N/A   Scattered Clouds
7:56 PM 53.1 °F - 36.0 °F 52% 30.17 in 10.0 mi SSW 6.9 mph - N/A   Scattered Clouds
8:56 PM 52.0 °F - 37.0 °F 57% 30.17 in 10.0 mi SSW 9.2 mph - N/A   Scattered Clouds
9:56 PM 51.1 °F - 36.0 °F 56% 30.18 in 10.0 mi SSW 9.2 mph - N/A   Scattered Clouds
10:56 PM 48.9 °F - 37.0 °F 64% 30.17 in 10.0 mi SSW 8.1 mph - N/A   Scattered Clouds
11:56 PM 48.9 °F - 34.0 °F 56% 30.16 in 10.0 mi WSW 5.8 mph - N/A   Mostly Cloudy